Location: Newark
(22.3000°N, 114.2000°E)
Time: 21:21:53
(UTC+00:00)

Hubble Space Telescope - Pass Details

Date: 25 October 2019
Orbit: 536 x 540 km, 28.5° (Epoch: 16 November)

Event Time Altitude Azimuth Distance (km) Brightness Sun altitude
Exits shadow 21:13:40 13° 215° (SW) 1,618 2.9 -16.9°
Maximum altitude 21:16:54 32° 154° (SSE) 919 2.2 -16.1°
Drops below altitude 10° 21:20:36 10° 90° (E) 1,776 4.8 -15.3°
Sets 21:23:00 0° 80° (E) 2,667 5.8 -14.7°
